Regional Weather Roundup
Issued by NWS

Home | Current Version | Previous Version | Graphics & Text | Print | Product List | Glossary On
Versions: 1 2 3 4 5 6 7 8 9 10 11 12 13 14 15 16 17 18 19 20 21 22 23 24 25 26 27 28 29 30 31 32 33 34 35 36 37 38 39 40 41 42 43 44 45 46 47 48 49 50
000
ASUS44 KMEG 171610
RWRTN
TENNESSEE HOURLY STATE WEATHER ROUNDUP
NATIONAL WEATHER SERVICE MEMPHIS TN
1000 AM CST FRI NOV 17 2017

TNZ002-004-019-021-049-052-054-088>092-171700-
WEST TENNESSEE

CITY           SKY/WX    TMP DP  RH WIND       PRES   REMARKS
MEMPHIS INTL   MOSUNNY   60  44  55 S13       30.08F
NWS MEMPHIS      N/A     60 N/A N/A MISG        N/A
JACKSON        CLOUDY    58  44  60 S6        30.11F
DYERSBURG      CLOUDY    53  44  71 S7        30.10F
SOMERVILLE     PTSUNNY   59  43  55 S8G16     30.09S
COVINGTON      PTSUNNY   59  45  58 S12       30.08F
UNION CITY     PTSUNNY   54  43  66 S9        30.10S
BOLIVAR        SUNNY     59  43  55 SE12      30.10F
PARIS          SUNNY     52  43  71 S7        30.11F
HUNTINGDON     SUNNY     54  43  66 SE6       30.11F
LEXINGTON      SUNNY     54  41  62 CALM      30.12F
SELMER         PTSUNNY   57  41  54 S9        30.12F
SAVANNAH       SUNNY     59  41  51 SE8       30.13S
$$

TNZ008-025-027-028-033-062-065-066-171700-
NORTH MIDDLE TENNESSEE

CITY           SKY/WX    TMP DP  RH WIND       PRES   REMARKS
NASHVILLE      PTSUNNY   44  41  89 CALM      30.18F
PORTLAND       MOSUNNY   41  41 100 VRB3      30.16F
CLARKSVILLE    SUNNY     43  38  82 E5        30.15S HAZE
SMYRNA         SUNNY     46  40  79 SE6       30.19F
COOKEVILLE     SUNNY     50  41  71 SW3       30.18F
GALLATIN       FOG       39  39 100 VRB6      30.21S VSB 1/4 WCI  35
CROSSVILLE     SUNNY     53  36  52 S6        30.18S
$$

TNZ061-075-076-078-094-096-097-171700-
SOUTH MIDDLE TENNESSEE

CITY           SKY/WX    TMP DP  RH WIND       PRES   REMARKS
FAYETTEVILLE   SUNNY     55  41  58 S8        30.15F
TULLAHOMA      SUNNY     55  37  50 SE7       30.16F
WINCHESTER     SUNNY     57  39  51 SE8       30.17F
MCMINNVILLE    SUNNY     52  41  66 CALM      30.18S
COLUMBIA       SUNNY     48  46  93 CALM      30.13F
SHELBYVILLE    SUNNY     54  41  62 SE7G14    30.15F HAZE
$$

TNZ017-018-042-046-047-171700-
NORTHEAST TENNESSEE

CITY           SKY/WX    TMP DP  RH WIND       PRES   REMARKS
TRI CITIES     MOSUNNY   47  38  71 VRB3      30.22S
ELIZABETHTON   SUNNY     50  34  53 CALM      30.20F
$$

TNZ012-013-036-069-073-074-171700-
CENTRAL EAST TENNESSEE

CITY           SKY/WX    TMP DP  RH WIND       PRES   REMARKS
KNOXVILLE      MOSUNNY   50  40  68 CALM      30.20S
OAK RIDGE      SUNNY     50  40  68 VRB3      30.22S
DOWNTOWN KNOXV SUNNY     50  39  66 CALM      30.22S
GATLINBURG     SUNNY     48  37  66 CALM      30.20F
MORRISTOWN     SUNNY     50  37  62 VRB6      30.19F
JACKSBORO      SUNNY     48  39  71 CALM      30.24F
$$

TNZ083-085-099-171700-
SOUTHEAST TENNESSEE

CITY           SKY/WX    TMP DP  RH WIND       PRES   REMARKS
CHATTANOOGA    MOSUNNY   52  39  61 CALM      30.21F
$$

SKY/WX REPORTED AS FAIR MEANS FEW OR NO CLOUDS BELOW
12 THOUSAND FEET.





USA.gov is the U.S. government's official web portal to all federal, state and local government web resources and services.